Regional Weather Roundup
Issued by NWS

Home | Current Version | Previous Version | Graphics & Text | Print | Product List | Glossary Off
Versions: 1 2 3 4 5 6 7 8 9 10 11 12 13 14 15 16 17 18 19 20 21 22 23 24 25 26 27 28 29 30 31 32 33 34 35 36 37 38 39 40 41 42 43 44 45 46 47 48 49 50

360
ASUS43 KDMX 281606
RWRIA

WEATHER ROUNDUP FOR IOWA
NATIONAL WEATHER SERVICE DES MOINES IA
1100 AM CDT WED JUN 28 2017

NOTE: "FAIR" INDICATES FEW OR NO CLOUDS BELOW 12,000 FEET WITH NO
SIGNIFICANT WEATHER AND/OR OBSTRUCTIONS TO VISIBILITY.

* - THESE STATIONS ARE NOT NWS STATIONS...THUS NOT UNDER NWS
QUALITY CONTROL.  THEY ALSO DO NOT REPORT WEATHER SUCH
AS PRECIPITATION OR FOG.

IAZ001>003-012>014-020>022-031>034-043>046-281700-
   NORTHWEST IOWA

CITY           SKY/WX    TMP DP  RH WIND       PRES   REMARKS
CARROLL *      CLOUDY    75  68  78 SW23G30   29.68R
CHEROKEE *     CLOUDY    71  69  91 SW14G21   29.66F
DENISON *        N/A     75  68  78 SW14G28   29.70S
LE MARS *      CLOUDY    77  68  73 SW18G24   29.65S
ORANGE CITY *  CLOUDY    75  68  78 SW16G24   29.64F
SHELDON *      CLOUDY    75  66  73 SW18G25   29.62F
SIOUX CITY     CLOUDY    73  69  87 SW7       29.65F
SPENCER        CLOUDY    75  67  76 SW21G32   29.65R
STORM LAKE *   DRIZZLE   70  68  94 SW13G22   29.68S
$$

IAZ055>058-069>071-079>083-090>094-281700-
   SOUTHWEST IOWA

CITY           SKY/WX    TMP DP  RH WIND       PRES   REMARKS
ATLANTIC *     MOSUNNY   77  70  78 SW26      29.71S
AUDUBON *      CLOUDY    77  70  78 S21G29    29.72R
CLARINDA *     PTSUNNY   77  70  78 S21G29    29.76F
COUNCIL BLFS * CLOUDY    77  72  83 SW21G29   29.70F
CRESTON *      CLOUDY    75  68  78 S22G32    29.76F
HARLAN  *      CLOUDY    75  70  83 SW21G32   29.73R
LAMONI         CLOUDY    73  68  84 S17       29.78F
RED OAK *      MOSUNNY   77  70  78 S18G28    29.72F
SHENANDOAH *   MOSUNNY   79  70  73 S13G23    29.73F HX  81
$$

IAZ047>049-059>061-072>074-084-281700-
   CENTRAL IOWA

CITY           SKY/WX    TMP DP  RH WIND       PRES   REMARKS
AMES           CLOUDY    77  67  71 SW18G30   29.69F
ANKENY *       CLOUDY    79  64  61 S17G29    29.71F HX  81
BOONE *        CLOUDY    77  66  69 SW17G30   29.69F
CHARITON *     CLOUDY    73  66  78 S23       29.76S
DES MOINES     CLOUDY    79  66  64 S23G29    29.71F HX  81
GRINNELL*      MOSUNNY   76  62  61 S17       29.76R
KNOXVILLE *    MOSUNNY   75  64  69 S15G29    29.72F
MARSHALLTOWN   PTSUNNY   76  63  64 S14G22    29.71S
NEWTON *       MOSUNNY   75  63  64 SW23G30   29.74R
PELLA *        CLOUDY    76  65  67 S17G23    29.75S
PERRY *          N/A     78  69  72 S25G37    29.70R HX  80
$$

IAZ004>006-015-016-023>025-035-036-281700-
   NORTH CENTRAL IOWA

CITY           SKY/WX    TMP DP  RH WIND       PRES   REMARKS
ALGONA *       PTSUNNY   79  68  69 SW22G31   29.66R HX  81
CLARION *        N/A     77  70  78 SW20G29   29.67F
ESTHERVILLE    MOSUNNY   74  68  81 SW26G36   29.63R
FORT DODGE *   CLOUDY    75  64  69 SW20G28   29.69S
MASON CITY     CLOUDY    75  64  68 S18G26    29.68F
FOREST CITY *    N/A     77  59  53 SW16G24   29.66F
WEBSTER CITY * CLOUDY    75  66  73 SW23      29.67S
IOWA FALLS *     N/A     76  64  65 SW22G29   29.71F
$$

IAZ007>011-017>019-026>030-037>042-050>054-066-281700-
   NORTHEAST IOWA

CITY           SKY/WX    TMP DP  RH WIND       PRES   REMARKS
CEDAR RAPIDS   LGT RAIN  69  68  96 S8        29.76F
CHARLES CITY * CLOUDY    66  66 100 SE15      29.72S
CLINTON *      CLOUDY    68  65  90 S20       29.86F
DECORAH *      CLOUDY    66  64  94 S12G20    29.75R
DUBUQUE        CLOUDY    66  66 100 S17G26    29.80F
MONTICELLO *   CLOUDY    68  64  88 S12G20    29.81S
OELWEIN *      CLOUDY    68  66  94 S21G26    29.74F
WATERLOO       CLOUDY    69  66  90 S16G23    29.71F
$$

IAZ064-065-067-068-078-281700-
   EAST CENTRAL IOWA

CITY           SKY/WX    TMP DP  RH WIND       PRES   REMARKS
IOWA CITY      LGT RAIN  73  66  78 S14       29.78F
MT. PLEASANT * CLOUDY    71  63  76 S15       29.81F
MUSCATINE *    CLOUDY    72  66  83 S17       29.79F
QUAD CITIES    CLOUDY    73  66  78 S15G21    29.84F
$$

IAZ062-063-075>077-085>089-095>099-281700-
   SOUTHEAST IOWA

CITY           SKY/WX    TMP DP  RH WIND       PRES   REMARKS
BURLINGTON     CLOUDY    72  65  78 S20G28    29.84F
FAIRFIELD *    PTSUNNY   73  63  68 S18G26    29.79R
FORT MADISON * CLOUDY    72  64  78 S14G23    29.82F
KEOKUK *       CLOUDY    73  64  73 S10G25    29.80F
OSKALOOSA *      N/A     74  65  74 S21       29.76F
CENTERVILLE *    N/A     77  68  73 S20G26    29.82F
OTTUMWA        CLOUDY    76  67  73 S16G25    29.78R
WASHINGTON *   CLOUDY    72  66  83 S17G28    29.79F
$$

ABBREVIATIONS USED IN REMARKS
   TC - TEMPERATURES IN CELSIUS
  WCI - WIND CHILL INDEX
   HX - HEAT INDEX
  VSB - VISIBILITY
$$





USA.gov is the U.S. government's official web portal to all federal, state and local government web resources and services.